Location: Bailleul
(50.3375°N, 2.8513°E)
Time: 03:30:41
(UTC+00:00)

Cosmos 1980 - Pass Details

Date: 23 October 2021
Orbit: 839 x 847 km, 71.0° (Epoch: 01 December)

Event Time Altitude Azimuth Distance (km) Brightness Sun altitude
Exits shadow 03:36:43 - 336° (NNW) 3,091 6.6 -27.2°
Reaches altitude 10° 03:39:09 10° 353° (N) 2,471 6.2 -26.8°
Maximum altitude 03:42:35 16° 31° (NNE) 2,072 6.2 -26.3°
Drops below altitude 10° 03:46:00 10° 68° (ENE) 2,469 7.1 -25.7°
Sets 03:49:28 0° 90° (E) 3,403 8.1 -25.2°
